Home > Weather > Rouen > Past weeks

Flag for France Weather for the Past 2 Weeks in Rouen, France

Now
36 °F

Mostly cloudy.


Feels Like: 33 °F
Forecast: 35 / 42 °F
Wind: 3 mph from South

Location: Rouen Airport

Current Time: Feb 11, 2016 at 6:05:42 AM

Latest Report: Feb 11, 2016 at 5:00 AM


Visibility: N/A

Pressure: 29.68 "Hg

Humidity: 100%

Dew point: 36 °F

Location of RouenLocation

Historic Weather in Rouen — Graph

°F

Rouen Temperature Yesterday

Maximum temperature yesterday: 43 °F (at 1:00 PM)
Minimum temperature yesterday: 34 °F (at 1:00 AM)
Average temperature yesterday: 39 °F

High & Low Weather Summary for the Past Weeks

 TemperatureHumidityPressure
High54 °F (Jan 31, 3:00 PM)100% (Jan 27, 6:00 PM)30.45 "Hg (Jan 27, 6:00 PM)
Low34 °F (Jan 28, 9:30 PM)58% (Feb 6, 4:30 PM)29.00 "Hg (Feb 9, 10:00 AM)
Average46 °F86%29.94 "Hg
* Reported Jan 27 5:00 AM — Feb 11 4:30 AM, Rouen, Weather by CustomWeather, © 2016

Note: Actual official high and low records may vary slightly from our data, if they occured in-between our weather recording intervals... More about our weather records

Advertising

Rouen Weather History for the Previous 24 Hours

 ConditionsComfort  
Time TempWeatherWind HumidityBarometerVisibility
4:30 AM
Thu, Feb 11
36 °FPassing clouds.5 mph100%29.68 "HgN/A
3:30 AM37 °FPartly cloudy.5 mph93%29.71 "HgN/A
3:00 AM37 °FPassing clouds.3 mph87%29.71 "HgN/A
2:30 AM37 °FMostly cloudy.5 mph93%29.71 "HgN/A
2:00 AM37 °FOvercast.6 mph93%29.68 "HgN/A
1:30 AM39 °FLow clouds.5 mph87%29.68 "HgN/A
1:00 AM39 °FLow clouds.5 mph93%29.68 "HgN/A
12:30 AM39 °FMostly cloudy.7 mph93%29.68 "HgN/A
12:00 AM39 °FLow clouds.5 mph93%29.68 "HgN/A
11:30 PM
Wed, Feb 10
39 °FLow clouds.6 mph93%29.68 "HgN/A
10:30 PM39 °FMostly cloudy.6 mph93%29.68 "HgN/A
10:00 PM37 °FMostly cloudy.7 mph93%29.65 "HgN/A
9:30 PM39 °FMostly cloudy.8 mph87%29.65 "HgN/A
9:00 PM39 °FMostly cloudy.10 mph93%29.65 "HgN/A
8:30 PM39 °FOvercast.9 mph87%29.62 "HgN/A
8:00 PM39 °FMostly cloudy.12 mph93%29.62 "HgN/A
7:30 PM39 °FMostly cloudy.12 mph93%29.62 "HgN/A
7:00 PM39 °FOvercast.12 mph93%29.62 "HgN/A
6:30 PM39 °FMostly cloudy.13 mph93%29.59 "HgN/A
6:00 PM41 °FMostly cloudy.12 mph87%29.59 "HgN/A
5:30 PM39 °FBroken clouds.9 mph93%29.56 "HgN/A
5:00 PM41 °FBroken clouds.13 mph87%29.56 "HgN/A
4:30 PM41 °FLight rain. Mostly cloudy.16 mph87%29.56 "HgN/A
4:00 PM43 °FDrizzle. Overcast.13 mph81%29.53 "HgN/A
3:30 PM43 °FLight rain. Overcast.16 mph81%29.53 "HgN/A
3:00 PM43 °FMostly cloudy.13 mph87%29.53 "HgN/A
2:30 PM43 °FMostly cloudy.18 mph81%29.53 "HgN/A
2:00 PM43 °FOvercast.17 mph81%29.53 "HgN/A
1:30 PM43 °FMostly cloudy.16 mph76%29.53 "HgN/A
1:00 PM43 °FMostly cloudy.14 mph81%29.53 "HgN/A
12:30 PM41 °FPartly sunny.18 mph87%29.50 "HgN/A
12:00 PM41 °FOvercast.15 mph81%29.50 "HgN/A
11:30 AM41 °FOvercast.14 mph81%29.50 "HgN/A
11:00 AM39 °FPartly sunny.16 mph87%29.50 "HgN/A
10:30 AM39 °FLight rain. Mostly cloudy.13 mph81%29.50 "HgN/A
10:00 AM39 °FBroken clouds.17 mph81%29.47 "HgN/A
9:30 AM41 °FPartly sunny.17 mph76%29.47 "HgN/A
9:00 AM37 °FChilly.17 mph87%29.47 "HgN/A
8:30 AM37 °FSunny.17 mph81%29.45 "Hg10 mi
8:00 AM36 °FPassing clouds.16 mph93%29.45 "HgN/A
7:30 AM37 °FPassing clouds.15 mph87%29.45 "HgN/A
7:00 AM37 °FPartly cloudy.16 mph87%29.45 "HgN/A
6:30 AM39 °FPassing clouds.14 mph81%29.45 "HgN/A
6:00 AM39 °FPassing clouds.17 mph81%29.42 "HgN/A
Weather by CustomWeather, © 2016

See weather overviewHow to use our weather pages